Regional & State Weather Roundups


634 
ASUS44 KLUB 192010
RWRLUB
WEST TEXAS WEATHER ROUNDUP
NATIONAL WEATHER SERVICE LUBBOCK TX
300 PM CDT FRI APR 19 2019
NOTE: "FAIR" INDICATES FEW OR NO CLOUDS BELOW 12,000 FEET WITH NO
SIGNIFICANT WEATHER AND/OR OBSTRUCTIONS TO VISIBILITY.
TXZ004-006>008-010-012-014-016-OKZ002-192100-
TEXAS PANHANDLE/OKLAHOMA PANHANDLE
  
CITY           SKY/WX    TMP DP  RH WIND       PRES   REMARKS
AMARILLO       SUNNY     64  33  31 VRB6      30.16F                  
BORGER         SUNNY     67  29  24 W6        30.16F                  
CANADIAN       SUNNY     67  32  26 N15       30.13F                  
DALHART        SUNNY     70  32  24 SW13      30.16F                  
DUMAS          SUNNY     65  31  28 SW6G16    30.16F                  
GUYMON         SUNNY     70  30  22 NW8       30.11F                  
HEREFORD       SUNNY     66  40  39 NW9       30.19F                  
PAMPA          SUNNY     67  32  26 W8G16     30.16F                  
PERRYTON       SUNNY     67  33  29 NW12G17   30.13F                  
$$
TXZ026-029-035-045-048-192100-
SOUTHERN PANHANDLE/SOUTH PLAINS/ROLLING PLAINS
  
CITY           SKY/WX    TMP DP  RH WIND       PRES   REMARKS
CHILDRESS      SUNNY     69  31  24 N10G22    30.14F                  
SEMINOLE       SUNNY     67  31  26 S5        30.24F                  
LUBBOCK        SUNNY     69  31  24 NW8       30.17F                  
PLAINVIEW      SUNNY     65  32  28 NW5       30.17F                  
SNYDER         SUNNY     67  35  30 N12G20    30.18F                  
$$
TXZ052-054-060>062-072-078-127-140-154-169-192100-
PERMIAN BASIN/CONCHO VALLEY/BIG COUNTRY/EDWARDS PLATEAU  
  
CITY           SKY/WX    TMP DP  RH WIND       PRES   REMARKS
ABILENE        SUNNY     69  37  30 N20       30.15F                  
BRADY          SUNNY     68  36  30 N17G24    30.14                   
BROWNWOOD      SUNNY     68  32  26 NW15G23   30.13F                  
JUNCTION       SUNNY     75  37  25 N20G25    30.15F                  
MIDLAND        SUNNY     70  33  25 W8        30.20F                  
ODESSA         SUNNY     69  30  23 NE5       30.20F                  
SAN ANGELO     SUNNY     74  38  27 N15       30.15F                  
SONORA         SUNNY     73  36  25 N10       30.20F                  
SWEETWATER     SUNNY     67  33  27 NW10      30.19F                  
WINK           SUNNY     73  32  22 S8        30.18F                  
$$
TXZ055-058-074-075-080-082-192100-
FAR WEST/SOUTHWEST MOUNTAINS/TRANS PECOS
  
CITY           SKY/WX    TMP DP  RH WIND       PRES   REMARKS
ALPINE         SUNNY     73  30  20 NE5       30.27F                  
DRYDEN           N/A     77  31  18 NE5       30.15F                  
EL PASO        MOSUNNY   79  28  15 VRB5      30.16F                  
FORT STOCKTON  SUNNY     71  31  22 MISG      30.20F                  
GUADALUPE PASS SUNNY     67  28  23 NE8G20    30.27F                  
MARFA          SUNNY     73  30  20 VRB3      30.24F                  
PECOS          SUNNY     73  30  20 CALM      30.18F                  
PRESIDIO       FAIR      83  32  15 CALM      30.15F                  
$$
TXZ014-016-019-021>030-083-192100
TEXAS TECH WEST TEXAS MESONET/TEXAS PANHANDLE/NORTHERN SOUTH PLAINS
  
CITY           SKY/WX    TMP DP  RH WIND       PRES   REMARKS
ABERNATHY 5ENE   N/A     68  33  26 W10       30.18F                  
AMARILLO 9NNE    N/A     65  35  33 W6        30.16F                  
AMARILLO 7SSE    N/A     65  36  34 W7        30.18F                  
AMHERST 1NE      N/A     70  31  24 SW6       30.18F                  
BOOTLEG 11WNW    N/A     65  36  34 SW7       30.21F                  
CANADIAN 6E      N/A     66  32  27 NW16      30.12F                  
CAPROCK CYN SP   N/A     69  28  21 N9        30.15F                  
CHILDRESS 2NNE   N/A     70  34  26 NW15      30.13F                  
CLARENDON 2WSW   N/A     66  33  28 NW13      30.15F                  
CLAUDE 12SW      N/A     65  32  28 W6        30.17F                  
DIMMITT 2NE      N/A     66  36  32 W8        30.18F                  
FLOYDADA 2NNE    N/A     70  28  21 NW8       30.16F                  
FRIONA 2NE       N/A     67  36  31 W7        30.19F                  
GOODLETT 3W      N/A     69  33  26 NW13G22   30.12F                  
HART 3N          N/A     67  35  30 W7        30.18F                  
HEREFORD 2NW     N/A     65  38  37 W10       30.18F                  
MCLEAN 1E        N/A     65  33  30 NW14      30.14F                  
MEMPHIS 1NE      N/A     69  30  23 NW10      30.13F                  
MULESHOE 2SSW    N/A     69  31  25 W6        30.18F                  
OLTON 6S         N/A     67  31  25 NW12      30.18F                  
PALO DURO SP     N/A     66  37  33 NW9       30.18F                  
PAMPA 2E         N/A     64  31  28 NW12      30.15F                  
PLAINVIEW 1S     N/A     69  34  27 NW10      30.16F                  
SILVERTON 7ESE   N/A     68  28  22 W10       30.16F                  
TULIA 2ENE       N/A     67  33  28 NW6       30.17F                  
TURKEY 2WSW      N/A     71  31  22 NW8       30.13F                  
UMBARGER 3NNE    N/A     63  40  43 W7        30.19F                  
$$
TXZ033>036-039>041-045>048-192100
TEXAS TECH WEST TEXAS MESONET/SOUTH PLAINS  
  
CITY           SKY/WX    TMP DP  RH WIND       PRES   REMARKS
AIKEN 3WSW       N/A     68  33  26 NW6       30.18F                  
ANDREWS 2NE      N/A     70  30  22 NW3       30.21F                  
ANTON 6SSW       N/A     70  30  22 W9        30.17F                  
BROWNFIELD 2S    N/A     69  31  25 SW6       30.19F                  
DENVR CTY 7WNW   N/A     68  27  21 S8        30.20F                  
GAIL 2ESE        N/A     69  34  28 N5        30.17F                  
LAMESA 2SE       N/A     68  33  28 W5        30.20F                  
LUBBOCK 3WNW     N/A     70  32  24 W8        30.18F                  
MORTON 1ENE      N/A     69  27  20 W7        30.19F                  
ODONNELL 1N      N/A     69  29  23 NW5       30.19F                  
PLAINS 3N        N/A     69  30  23 SW8       30.20F                  
RALLS 1SE        N/A     68  32  26 NW8       30.18F                  
REESE CENTER     N/A     69  31  24 N5        30.17F                  
SEAGRAVES 1SW    N/A     68  32  26 SW2       30.20F                  
SEMINOLE 2NNE    N/A     68  30  24 E2        30.20F                  
SLATON 2NE       N/A     68  35  28 NW8       30.18F                  
SNYDER 3E        N/A     70  37  29 NW10G24   30.16F                  
SUNDOWN 8SW      N/A     70  29  21 W8        30.18F                  
TAHOKA 3NNE      N/A     68  34  27 W8        30.18F                  
WOLFFORTH 6SSW   N/A     70  30  23 W9        30.18F                  
$$
TXZ031-032-036>038-042>044-192100-
TEXAS TECH WEST TEXAS MESONET/ROLLING PLAINS 
  
CITY           SKY/WX    TMP DP  RH WIND       PRES   REMARKS
ASPERMONT 3NE    N/A     68  42  38 NW10      30.15F                  
FLUVANNA 3WNW    N/A     67  32  26 NW7       30.18F                  
GRAHAM 5SSW      N/A     67  33  28 W5        30.18F                  
GUTHRIE 10WSW    N/A     69  36  29 N8        30.14F                  
HASKELL 1NW      N/A     68  35  30 NW12      30.14F                  
JAYTON 1SSE      N/A     69  38  32 N9        30.15F                  
KNOX CITY 3NW    N/A     71  38  30 NW13      30.14F                  
LK A HENRY 1NW   N/A     69  36  30 NW9       30.16F                  
NORTHFIELD 1S    N/A     71  29  21 NW8       30.13F                  
ODELL 4ENE       N/A     67  35  31 NW9       30.14F                  
PADUCAH 10SW     N/A     70  35  28 NW14      30.14F                  
POST 1NE         N/A     69  31  24 N5        30.17F                  
RRING SPRGS 3N   N/A     68  37  31 N8        30.15F                  
SEYMOUR 3NW      N/A     66  37  34 NW13      30.14F                  
SPUR 1W          N/A     70  30  22 NW9       30.14F                  
WEINERT 2NNE     N/A     67  38  34 N15       30.15F                  
WHITE RVR 6NE    N/A     69  31  24 NW8       30.16F                  
$$
TXZ052-054-060>062-072-078-127-140-154-169-192100-
TEXAS TECH WEST TEXAS MESONET/PERMIAN BASIN/
CONCHO VALLEY/BIG COUNTRY/EDWARDS PLATEAU
  
CITY           SKY/WX    TMP DP  RH WIND       PRES   REMARKS
COYANOSA 2N      N/A     73  32  22 S6        30.19F                  
JUNCTION 1SSW    N/A     72  38  29 N10       30.15F                  
MERTZON 3NNE     N/A     71  39  30 NE8       30.18F                  
SAN ANGELO 7NW   N/A     73  33  22 NW9       30.15F                  
STRLNG CT 4WSW   N/A     69  36  29 N2        30.19F                  
ST LAWRNCE 5SW   N/A     69  32  24 NW7       30.19F                  
SWEETWATR 11SW   N/A     67  34  29 NW10      30.18F                  
WALL 1E          N/A     73  33  22 N12       30.16F                  
$$
TXZ055-058-074-075-080-082-192100-
TEXAS TECH WEST TEXAS MESONET/FAR WEST/SOUTHWEST MOUNTAINS/TRANS PECOS
  
CITY           SKY/WX    TMP DP  RH WIND       PRES   REMARKS
PRSMN GAP BBNP   N/A     77  30  17 N9        30.17F                  
GUADLPE MTN NP   N/A     64  30  28 NE1       30.27F                  
$$